Regional Weather Roundup
Issued by NWS

Home | Current Version | Previous Version | Text Only | Print | Product List | Glossary Off
Versions: 1 2 3 4 5 6 7 8 9 10 11 12 13 14 15 16 17 18 19 20 21 22 23 24 25 26 27 28 29 30 31 32 33 34 35 36 37 38 39 40 41 42 43 44 45 46 47 48 49 50

000
ASUS43 KLSX 310407
RWRMO

WEATHER SUMMARY FOR MISSOURI
NATIONAL WEATHER SERVICE SPRINGFIELD MO
1100 PM CDT THU JUL 30 2015

NOTE: "FAIR" INDICATES FEW OR NO CLOUDS BELOW 12,000 FEET WITH NO
       SIGNIFICANT WEATHER AND/OR OBSTRUCTIONS TO VISIBILITY.
       CURRENT SKY AND/OR WEATHER CONDITIONS ARE NOT AVAILABLE FOR
       CHILLICOTHE AND FARMINGTON.

MOZ001>031-035>038-043-044-053-054-310500-
...NORTHERN AND WESTERN MISSOURI...

CITY           SKY/WX    TMP DP  RH WIND       PRES   REMARKS
KANSAS CTY INT CLEAR     77  61  57 CALM      30.16R
KANSAS C DTWN  CLEAR     75  66  73 CALM      30.15R
LEE`S SUMMIT   CLEAR     76  62  62 SE3       30.17R
ST JOSEPH      PTCLDY    71  68  90 CALM      30.15R
CHILLICOTHE      N/A     71  68  90 CALM      30.16R
KIRKSVILLE     CLEAR     68  65  90 SW3       30.15R

$$
MOZ066>068-077>081-088>096-101>105-310500-
...SOUTHWEST MISSOURI...

CITY           SKY/WX    TMP DP  RH WIND       PRES   REMARKS
SPRINGFIELD    PTCLDY    74  63  68 E5        30.17R
JOPLIN         MOCLDY    72  66  81 CALM      30.16R

$$
MOZ032>034-039>042-045>050-055>058-069>072-310500-
...CENTRAL MISSOURI...

CITY           SKY/WX    TMP DP  RH WIND       PRES   REMARKS
COLUMBIA       CLEAR     75  68  78 CALM      30.16R
JEFFERSON CITY CLEAR     71  67  87 CALM      30.14R
ROLLA          CLEAR     67  61  81 CALM      30.16R HAZE
SEDALIA        CLEAR     75  64  68 SW5       30.17R
WHITEMAN AFB   CLEAR     71  65  81 SW2       30.15R
WARRENSBURG    CLEAR     70  66  88 CALM      30.16R
OSAGE BEACH    CLEAR     68  64  88 CALM      30.17R

$$
MOZ051-052-059>065-310500-
...EAST CENTRAL MISSOURI...

CITY           SKY/WX    TMP DP  RH WIND       PRES   REMARKS
ST LOUIS INTL  PTCLDY    79  66  64 W6        30.13R
SPIRIT OF STL  CLEAR     72  70  93 CALM      30.12S
ST CHARLES     CLEAR     74  70  87 CALM      30.11S

$$
MOZ072>076-082>087-097>100-106>115-310500-
...SOUTH CENTRAL AND SOUTHEAST MISSOURI...

CITY           SKY/WX    TMP DP  RH WIND       PRES   REMARKS
CAPE GIRARDEAU PTCLDY    71  69  93 CALM      30.11S
FARMINGTON     CLEAR     68  64  88 CALM      30.19S
POPLAR BLUFF   CLEAR     71  68  90 NW3       30.10S
WEST PLAINS    PTCLDY    69  64  84 CALM      30.18R

$$



USA.gov is the U.S. government's official web portal to all federal, state and local government web resources and services.